Location: Boleita
(10.4833°N, 66.8167°W)
Time: 13:50:21
(UTC+00:00)

Aurora 2 Rocket - Visible Passes

Search period start: 14 February 2026 00:00
Search period end: 24 February 2026 00:00
Orbit: 385 x 1537 km, 25.0° (Epoch: 13 February)

Date Brightness Start Highest point End Pass type
(mag) Time Alt. Az. Time Alt. Az. Time Alt. Az.
14 Feb 5.4 08:34:05 13° NNE 08:34:05 13° NNE 08:35:26 10° NE visible
14 Feb 5.0 10:19:34 10° NW 10:24:20 25° NNE 10:30:21 10° ENE visible
15 Feb 5.0 08:53:06 15° NNE 08:53:06 15° NNE 08:56:10 10° NE visible
16 Feb 4.7 09:12:06 17° N 09:13:19 18° NNE 09:17:15 10° ENE visible
17 Feb 4.6 09:31:08 16° NNW 09:33:39 23° NNE 09:38:25 10° ENE visible
18 Feb 5.3 00:35:45 10° S 00:36:20 11° S 00:36:20 11° S visible
18 Feb 4.3 09:50:11 13° NW 09:53:52 32° NNE 09:59:27 10° E visible
19 Feb 5.3 00:54:17 10° SSW 00:55:26 14° SSW 00:55:26 14° SSW visible
19 Feb 5.4 08:25:01 11° NE 08:25:01 11° NE 08:25:31 10° NE visible
19 Feb 3.7 10:09:24 10° NW 10:13:57 48° NNE 10:20:12 10° E visible
19 Feb 5.0 23:23:44 10° SSW 23:27:14 15° SSE 23:30:16 10° SE visible
20 Feb 5.6 01:13:42 10° SW 01:14:34 14° SW 01:14:34 14° SW visible
20 Feb 4.7 08:44:06 19° NE 08:44:06 19° NE 08:46:47 10° ENE visible
20 Feb 4.3 23:42:18 10° SSW 23:47:39 26° SSE 23:49:29 21° SE visible
21 Feb 6.0 01:33:36 10° WSW 01:33:42 10° WSW 01:33:42 10° WSW visible
21 Feb 3.7 09:03:12 32° NNE 09:03:14 32° NNE 09:07:44 10° E visible
22 Feb 3.5 00:01:36 10° SW 00:07:55 43° SSE 00:08:37 41° SE visible
22 Feb 2.7 09:22:19 45° NNW 09:23:15 58° NNE 09:28:18 10° ESE visible
23 Feb 3.1 00:21:20 10° WSW 00:27:46 73° S 00:27:46 73° S visible
23 Feb 2.4 09:41:27 31° WNW 09:43:16 74° SSW 09:48:27 10° ESE visible
23 Feb 4.4 22:49:07 10° SW 22:56:38 41° SSE 23:02:18 10° E visible
